Regional Weather Roundup
Issued by NWS

Home | Current Version | Previous Version | Text Only | Print | Product List | Glossary On
Versions: 1 2 3 4 5 6 7 8 9 10 11 12 13 14 15 16 17 18 19 20 21 22 23 24 25 26 27 28 29 30 31 32 33 34 35 36 37 38 39 40 41 42 43 44 45 46 47 48 49 50
000
ASUS42 KTBW 071516
RWRFL
FLORIDA REGIONAL WEATHER ROUNDUP
NATIONAL WEATHER SERVICE TAMPA BAY RUSKIN FL
1000 AM EST SUN FEB 07 2016

NOTE: "FAIR" INDICATES FEW OR NO CLOUDS BELOW 12,000 FEET WITH NO
SIGNIFICANT WEATHER AND/OR OBSTRUCTIONS TO VISIBILITY.


FLZ001>010-012>015-112-114-115-071600-
PANHANDLE FLORIDA

CITY           SKY/WX    TMP DP  RH WIND       PRES   REMARKS
PENSACOLA      SUNNY     49  24  37 N10       30.26F WCI  45
MILTON NAS     SUNNY     46  25  43 VRB6      30.26  WCI  43
CRESTVIEW      SUNNY     47  24  40 N6        30.27S WCI  44
DUKE FIELD     SUNNY     47  22  38 N9        30.24S WCI  42
VALPARAISO     SUNNY     47  22  36 N14       30.23F WCI  41
MARY ESTHER    SUNNY     48  20  32 N12G20    30.24F WCI  43
TRI COUNTY     FAIR      46  27  47 N8        30.24R WCI  42
PANAMA CITY    FAIR      47  27  45 NW15      30.22S WCI  41
TYNDALL AFB    SUNNY     48  26  43 N12       30.23R WCI  43
APALACHICOLA   SUNNY     50  29  44 N10       30.20R

STATION/POSITION SKY/WX   TEMP    WIND        PRES    WAVE   SWELL
                          AIR SEA DIR/SP/G            HT/PER HT/PER
                          (F)     (DEG/KT/KT) (MB)    (FT/S) (FT/S)
30.1N   87.6W              49 61   10/ 12/ 14 1024.7R   2/ 3
28.8N   86.0W              56 69  350/ 17/ 23 1023.8R   5/ 6
PANAMA CITY BEAC           42 60  350/ 10/ 14 1023.5R
CAPE SAN BLAS    NOT AVBL
TOWER C          NOT AVBL
28.5N   84.5W              56 68  340/ 21/ 27 1021.7R   6/ 6

$$
FLZ011-016>038-118-127-128-134-139-239-071600-
NORTH FLORIDA

CITY           SKY/WX    TMP DP  RH WIND       PRES   REMARKS
MARIANNA       SUNNY     46  27  47 NW8       30.22R WCI  42
TALLAHASSEE    SUNNY     48  26  42 N9        30.18R WCI  44
PERRY          SUNNY     50  28  42 NW10      30.15S
LIVE OAK         N/A     46  34  61 NW10      30.14R WCI  41
CROSS CITY       N/A     49  32  52 NW10      30.12S WCI  45
LAKE CITY      CLOUDY    43  37  81 N10G17    30.09S WCI  37
GAINESVILLE    CLOUDY    44  36  73 NW14G22   30.09R WCI  37
WILLISTON      FAIR      48  37  66 W14G20    30.12R WCI  43
KEYSTONE HEIGH FAIR      46  37  71 NW14G20   30.07R WCI  40
PALATKA        CLOUDY    45  39  81 NW13G18   30.07R WCI  38
MAYPORT NAS    CLOUDY    43  40  89 NW12G20   30.03R WCI  37
JACKSONVILLE   CLOUDY    43  39  86 NW14G23   30.04R WCI  36
JAX NAS        CLOUDY    45  37  73 NW9       30.05R WCI  40
JAX CRAIG      CLOUDY    44  38  79 NW17      30.04R WCI  36
JAX CECIL      CLOUDY    45  39  81 NW12      30.06R WCI  39
FERNANDINA BEA CLOUDY    45  41  87 NW15G23   30.01S WCI  38
ST AUGUSTINE   CLOUDY    43  40  89 NW10G24   30.05R WCI  37
PALM COAST     CLOUDY   N/A N/A N/A NW12G23   30.04R

STATION/POSITION SKY/WX   TEMP    WIND        PRES    WAVE   SWELL
                          AIR SEA DIR/SP/G            HT/PER HT/PER
                          (F)     (DEG/KT/KT) (MB)    (FT/S) (FT/S)
SHELL POINT                42     330/  8/ 14 1020.4
KEATON BEACH               48     340/  8/ 10 1020.8F
CEDAR KEY                  48     340/ 10/ 16 1020.4R
FERNANDINA                 43 55  320/ 12/ 19 1016.5R
30.7N   81.3W                 56                N/A     6/ 8   2/11
MAYPORT                    42 56  310/ 16/ 21 1016.3R
31.4N   80.9W              43 56  340/ 23/ 27 1015.1R   6/ 8   3/ 8
ST AUGUSTINE               42 57  300/ 10/ 14 1017.7R

$$
FLZ040-043>046-052-053-057-058-063-144-071600-
INTERIOR CENTRAL FLORIDA

CITY           SKY/WX    TMP DP  RH WIND       PRES   REMARKS
OCALA          MOSUNNY   46  36  66 NW15      30.09R WCI  40
THE VILLAGES     N/A     48  41  76 NW13      29.99R WCI  43
LEESBURG       MOSUNNY   48  39  71 N14       30.09R WCI  42
SANFORD        CLOUDY    46  42  86 NW16      30.05R WCI  39
ORLANDO EXEC   CLOUDY    47  42  83 W16G23    30.06R WCI  40
ORLANDO INTL   CLOUDY    46  42  86 W15       30.06R WCI  40
KISSIMMEE      CLOUDY    46  45  93 NW17      30.07R WCI  39
WINTER HAVEN   CLOUDY    47  43  86 NW16      30.10R WCI  40
LAKELAND       MOSUNNY   46  39  76 NW17G24   30.10R WCI  39
BARTOW         CLOUDY    46  41  81 NW13G24   30.09R WCI  41
OKEECHOBEE     CLOUDY    48  45  87 NW16G22   30.04S WCI  42

$$
FLZ041-047-054-059-064-141-147-071600-
EAST CENTRAL FLORIDA

CITY           SKY/WX    TMP DP  RH WIND       PRES   REMARKS
ORMOND BEACH   CLOUDY    43  41  93 NW12G21   30.03R WCI  37
DAYTONA BEACH  CLOUDY    44  42  93 NW13G22   30.03R WCI  38
DELAND           N/A     45  41  87 W12       30.06R WCI  39
NEW SMYRNA BEA PTSUNNY   45  43  93 NW18G30   30.01R WCI  37
JFK SPACE CTR  CLOUDY    47  43  88 NW20G31   30.01R WCI  39
TITUSVILLE     CLOUDY    45  45 100 NW23G31   30.03R WCI  36
CAPE CANAVERAL CLOUDY    47  45  91 NW21G29   30.00R WCI  40
PATRICK AFB    CLOUDY    48  45  88 NW24      30.01R WCI  40
MELBOURNE      CLOUDY    48  44  86 NW18G29   30.02R WCI  41
VERO BEACH     CLOUDY    48  43  82 W20G30    30.03R WCI  41
FT PIERCE      CLOUDY    48  45  89 W18G28    30.00S WCI  41

STATION/POSITION SKY/WX   TEMP    WIND        PRES    WAVE   SWELL
                          AIR SEA DIR/SP/G            HT/PER HT/PER
                          (F)     (DEG/KT/KT) (MB)    (FT/S) (FT/S)
28.5N   80.2W              53 70  310/ 25/ 33 1013.6R
28.9N   78.5W              66 74              1007.3R
TRIDENT PIER               48 65  280/ 13/ 18 1015.9R
28.4N   80.5W                 65                N/A     3/11   2/11
27.5N   80.2W                 73                N/A     5/11   2/11

$$
FLZ050-056-061-142-242-148-248-149-249-151-251-155-255-
160-260-071600-
WEST CENTRAL FLORIDA

CITY           SKY/WX    TMP DP  RH WIND       PRES   REMARKS
CRYSTAL RIVER  FAIR      46  36  66 NW9G17    30.13R WCI  42
INVERNESS      FAIR      46  37  71 N7        30.12R WCI  43
BROOKSVILLE    SUNNY     50  34  54 NW15G23   30.13R WCI  45
ZEPHYRHILLS    PTSUNNY   46  38  76 NW16G24   30.12R WCI  39
CLEARWATER AIR FAIR      50  36  57 N17G23    30.13R WCI  44
ST PETE CLEARW SUNNY     52  36  54 N23G30    30.13R
TAMPA INTL     MOSUNNY   51  33  50 NW21G31   30.13R
TAMPA EXEC     SUNNY     54  34  47 NW17G25   30.12R
PLANT CITY     MOSUNNY   50  39  66 NW21G28   30.13R WCI  43
MACDILL AFB    SUNNY     53  38  56 N15G25    30.12R
PETER O KNIGHT SUNNY     54  37  54 N14G23    30.13R
ST PETERSBURG  SUNNY     52  37  56 N20G30    30.11R
SARASOTA       SUNNY     53  39  59 N17G28    30.11R
VENICE         FAIR      55  39  54 NW18G30   30.14R

STATION/POSITION SKY/WX   TEMP    WIND        PRES    WAVE   SWELL
                          AIR SEA DIR/SP/G            HT/PER HT/PER
                          (F)     (DEG/KT/KT) (MB)    (FT/S) (FT/S)
CEDAR KEY                  48     340/ 10/ 16 1020.4R
28.5N   84.5W              56 68  340/ 21/ 27 1021.7R   6/ 6
27.3N   84.2W                 71                N/A     8/ 7
CLEARWATER BEACH           51 55  350/ 26/ 31 1019.7R
MIDDLE TAMPA BAY           51     350/ 20/ 25 1019.4R
VENICE                     54 62  340/ 25/ 28 1019.9R

$$
FLZ066-069-070-075>078-162-262-165-265-071600-
SOUTHWEST FLORIDA AND KEYS

CITY           SKY/WX    TMP DP  RH WIND       PRES   REMARKS
PUNTA GORDA    PTSUNNY   54  46  74 NW21G26   30.13R
FT MYERS       CLOUDY    55  45  68 NW16G26   30.10R
SOUTHWEST INTL CLOUDY    56  45  66 NW10G21   30.10R
NAPLES         CLOUDY    56  47  71 NW13G24   30.11R
MARCO ISLAND   CLOUDY    55  45  67 N12G20    30.09R
MARATHON       CLOUDY    60  48  64 N17G29    30.10R
KEY WEST NAS   CLOUDY    61  51  70 N24G32    30.10R
KEY WEST INTL  CLOUDY    62  53  72 N20G30    30.10R

STATION/POSITION SKY/WX   TEMP    WIND        PRES    WAVE   SWELL
                          AIR SEA DIR/SP/G            HT/PER HT/PER
                          (F)     (DEG/KT/KT) (MB)    (FT/S) (FT/S)
VENICE                     54 62  340/ 25/ 28 1019.9R
NAPLES                        63              1018.4R
26.0N   85.6W              63 80  350/ 23/ 29 1021.4R   6/ 6
DRY TORTUGAS     NOT AVBL
SAND KEY                   61     360/ 26/ 31 1019.7R
LONG KEY                   60 67  340/ 21/ 27 1019.7R
MOLASSES REEF              57 74  330/ 26/ 30 1018.1R

$$
FLZ067-068-071>074-168-172>174-071600-
SOUTHEAST FLORIDA

CITY           SKY/WX    TMP DP  RH WIND       PRES   REMARKS
W PALM BEACH   CLOUDY    54  47  77 W16       30.04R
BOCA RATON     PTSUNNY   55  46  71 NW20G28   30.04R
FT LAUDER-EXEC CLOUDY    54  44  69 NW20G28   30.05R
FT LAUDERDALE  CLOUDY    55  45  68 W12G21    30.05R
POMPANO BEACH  CLOUDY    56  47  71 W18       30.04R
PEMBROKE PINES CLOUDY    56  45  66 W14G23    30.08R
OPA LOCKA      LGT RAIN  57  46  66 W16       30.08R
MIAMI          LGT RAIN  56  46  69 NW10      30.08R
WEST KENDALL   CLOUDY    57  46  66 NW18      30.07R
HOMESTEAD      CLOUDY    56  44  62 NW13G22   30.08R

STATION/POSITION SKY/WX   TEMP    WIND        PRES    WAVE   SWELL
                          AIR SEA DIR/SP/G            HT/PER HT/PER
                          (F)     (DEG/KT/KT) (MB)    (FT/S) (FT/S)
PORT EVERGLADES            56C1F1M1C2F2M2C3F3C4F4M3C5F5M4C6F6M5C7F7M6C8!


USA.gov is the U.S. government's official web portal to all federal, state and local government web resources and services.